TimePST,TemperatureF,Dew PointF,Humidity,Sea Level PressureIn,VisibilityMPH,Wind Direction,Wind SpeedMPH,Gust SpeedMPH,PrecipitationIn,Events,Conditions,WindDirDegrees,DateUTC
12:56 AM,51.1,48.9,92,30.31,10.0,West,8.1,-,N/A,,Overcast,270,2000-01-08 08:56:00
1:56 AM,50.0,48.9,96,30.30,10.0,WSW,5.8,-,N/A,,Overcast,250,2000-01-08 09:56:00
2:56 AM,50.0,48.9,96,30.30,10.0,Calm,Calm,-,N/A,,Overcast,0,2000-01-08 10:56:00
3:56 AM,48.9,48.0,97,30.31,10.0,West,9.2,-,N/A,,Overcast,270,2000-01-08 11:56:00
4:56 AM,48.9,46.9,93,30.30,10.0,SW,4.6,-,N/A,,Overcast,220,2000-01-08 12:56:00
5:56 AM,48.9,46.9,93,30.32,10.0,Calm,Calm,-,N/A,,Overcast,0,2000-01-08 13:56:00
6:56 AM,48.9,46.9,93,30.31,10.0,SE,4.6,-,N/A,,Overcast,130,2000-01-08 14:56:00
7:56 AM,48.9,46.9,93,30.33,9.0,Calm,Calm,-,N/A,,Overcast,0,2000-01-08 15:56:00
8:56 AM,48.9,46.9,93,30.35,9.0,Calm,Calm,-,N/A,,Overcast,0,2000-01-08 16:56:00
9:56 AM,48.9,46.9,93,30.36,7.0,SSE,4.6,-,N/A,,Overcast,160,2000-01-08 17:56:00
10:56 AM,50.0,48.0,93,30.34,8.0,East,6.9,-,N/A,,Overcast,80,2000-01-08 18:56:00
11:56 AM,53.1,48.0,83,30.33,9.0,WNW,8.1,-,N/A,,Mostly Cloudy,300,2000-01-08 19:56:00
12:56 PM,54.0,48.0,80,30.31,8.0,West,11.5,-,N/A,,Mostly Cloudy,270,2000-01-08 20:56:00
1:24 PM,55.4,48.2,77,30.29,8.0,WNW,8.1,-,N/A,,Mostly Cloudy,300,2000-01-08 21:24:00
1:56 PM,55.0,48.9,80,30.27,8.0,NNE,6.9,-,N/A,,Mostly Cloudy,30,2000-01-08 21:56:00
2:12 PM,51.8,48.2,88,30.27,7.0,ENE,8.1,-,N/A,,Mostly Cloudy,60,2000-01-08 22:12:00
2:56 PM,52.0,48.9,89,30.27,8.0,Variable,3.5,-,N/A,,Mostly Cloudy,0,2000-01-08 22:56:00
3:12 PM,51.8,48.2,88,30.26,8.0,NE,3.5,-,N/A,,Mostly Cloudy,50,2000-01-08 23:12:00
3:56 PM,53.1,50.0,89,30.25,10.0,West,12.7,-,N/A,,Overcast,260,2000-01-08 23:56:00
4:11 PM,53.6,50.0,88,30.26,10.0,WSW,16.1,-,N/A,,Overcast,250,2000-01-09 00:11:00
4:56 PM,51.1,50.0,96,30.26,10.0,WSW,12.7,-,N/A,,Overcast,240,2000-01-09 00:56:00
5:26 PM,51.8,48.2,88,30.26,10.0,West,12.7,-,N/A,,Mostly Cloudy,260,2000-01-09 01:26:00
5:44 PM,51.8,48.2,88,30.26,10.0,West,9.2,-,N/A,,Partly Cloudy,270,2000-01-09 01:44:00
5:56 PM,51.1,48.9,92,30.26,10.0,West,13.8,-,N/A,,Scattered Clouds,260,2000-01-09 01:56:00
6:56 PM,51.1,48.9,92,30.25,10.0,WSW,6.9,-,N/A,,Partly Cloudy,250,2000-01-09 02:56:00
7:56 PM,50.0,48.0,93,30.27,10.0,West,11.5,-,N/A,,Partly Cloudy,270,2000-01-09 03:56:00
8:28 PM,51.8,48.2,88,30.28,10.0,West,11.5,-,N/A,,Mostly Cloudy,270,2000-01-09 04:28:00
8:56 PM,51.1,48.0,89,30.27,10.0,WSW,9.2,-,N/A,,Mostly Cloudy,250,2000-01-09 04:56:00
9:29 PM,50.0,48.2,94,30.29,10.0,West,11.5,-,N/A,,Mostly Cloudy,260,2000-01-09 05:29:00
9:56 PM,51.1,48.0,89,30.28,10.0,WSW,11.5,-,N/A,,Mostly Cloudy,240,2000-01-09 05:56:00
10:47 PM,48.2,46.4,93,30.28,10.0,SE,6.9,-,N/A,,Scattered Clouds,140,2000-01-09 06:47:00
10:56 PM,48.9,46.9,93,30.28,10.0,SE,5.8,-,N/A,,Mostly Cloudy,130,2000-01-09 06:56:00
11:56 PM,50.0,46.9,89,30.30,10.0,SSW,3.5,-,N/A,,Mostly Cloudy,200,2000-01-09 07:56:00